Date,Seconds since 1970,Water Temperature �,Optical Backscatter (1/(m sr)),Chlorophyll Concentration (ug/L),Salinity (PSU),Density (kg/m^3),Current Velocity (m/s),Wind Speed (m/s),Mixed Layer Depth (m)
1/11/15 3:00,1420945200,-0.233846878,0.000154912,0.272172505,34.19470458,1027.866095,0.146976532,1.5,16.54180725
1/11/15 4:00,1420948800,-0.231541527,0.000165866,0.361184277,34.18273595,1027.856043,0.146954576,0.7,15.62264622
1/11/15 5:00,1420952400,-0.122337765,0.000167782,0.308344005,34.20740521,1027.870128,0.123896867,0.4,14.70348519
1/11/15 6:00,1420956000,-0.199766372,0.000164733,0.318216611,34.18181193,1027.85438,0.126266933,1.299159664,13.78432416
1/11/15 7:00,1420959600,-0.222074451,0.000160594,0.319649531,34.18552906,1027.858707,0.147368061,0,12.09989333
1/11/15 8:00,1420963200,-0.124559694,0.00015406,0.229697436,34.22086819,1027.881845,0.169079345,0,7.844907253
1/11/15 9:00,1420966800,-0.181545545,0.000162273,0.290884716,34.20921256,1027.875684,0.190939503,0,8.495731771
1/11/15 10:00,1420970400,-0.162447764,0.000171616,0.323509975,34.21336166,1027.877992,0.207871914,0.8,7.142433157
1/11/15 11:00,1420974000,-0.128080732,0.000181673,0.321691362,34.22403272,1027.884507,0.208320532,0.099166667,7.563320958
1/11/15 12:00,1420977600,-0.065066321,0.000205956,0.399206794,34.19174981,1027.855596,0.191770041,0.198347107,7.98420876
1/11/15 13:00,1420981200,0.032735797,0.000214546,0.361557649,34.22512962,1027.877529,0.187226791,0.5,11.77291502
1/11/15 14:00,1420984800,0.005270241,0.000209157,0.366780242,34.21805022,1027.871948,0.125928031,1.401666667,15.69290363
1/11/15 15:00,1420988400,0.060241133,0.000196249,0.289897431,34.25348818,1027.898545,0.108895826,1.7,15.47141461
1/11/15 16:00,1420992000,0.080349801,0.000192595,0.268723359,34.26478896,1027.905741,0.083458208,0.699166667,9.325916663
1/11/15 17:00,1420995600,0.020629152,0.000200604,0.328446294,34.24037923,1027.889874,0.082423959,1.3,12.76980532
1/11/15 18:00,1420999200,-0.063017393,0.000203267,0.419338396,34.2038287,1027.865067,0.081458952,1.101666667,21.48313546
1/11/15 19:00,1421002800,-0.030293839,0.000199759,0.431446811,34.20307082,1027.861997,0.1016845,0.200833333,16.26667079
1/11/15 20:00,1421006400,-0.016418095,0.000190218,0.466795577,34.19004257,1027.851628,0.108628956,0.100833333,14.50489248
1/11/15 21:00,1421010000,0.043232223,0.000186717,0.442571682,34.19894888,1027.853811,0.150110524,1.698333333,15.66309684
1/11/15 22:00,1421013600,0.066834695,0.000187907,0.441819754,34.20020735,1027.855082,0.150227965,2.101666667,18.9158564
1/11/15 23:00,1421017200,-0.049885093,0.000183635,0.485404827,34.18446988,1027.847984,0.153363009,2.701666667,17.80098863
1/12/15 0:00,1421020800,-0.095946168,0.000187364,0.501033473,34.1776944,1027.845163,0.150946771,2.4,16.57013713
1/12/15 1:00,1421024400,-0.129070666,0.000182739,0.521618699,34.1836968,1027.851524,0.141386446,1.498333333,15.33928563
1/12/15 2:00,1421028000,-0.082263074,0.000185492,0.495248616,34.15855092,1027.825412,0.135299894,1.9,14.10843413
1/12/15 3:00,1421031600,-0.021415769,0.00018199,0.466185516,34.18952117,1027.850705,0.12431789,2.1,12.87758263
1/12/15 4:00,1421035200,-0.002284048,0.000183778,0.461636024,34.15428496,1027.821056,0.118622835,2.5,11.64673113
1/12/15 5:00,1421038800,-0.333414131,0.000173939,0.430627872,34.10687241,1027.79943,0.115892377,1.4,16
1/12/15 6:00,1421042400,-0.011840867,0.000186221,0.417986668,34.17042263,1027.834376,0.12797763,1.7,16
1/12/15 7:00,1421046000,-0.111916316,0.000197091,0.405963023,34.15786971,1027.829888,0.13147693,2,16
1/12/15 8:00,1421049600,-0.170454662,0.000183196,0.355629039,34.16807064,1027.841097,0.146635207,1.6,14.3809016
1/12/15 9:00,1421053200,-0.199160702,0.000157788,0.281041994,34.17452135,1027.848954,0.146635207,1.8,12.29950328
1/12/15 10:00,1421056800,-0.47181323,0.000128381,0.206058377,34.1564003,1027.847019,0.183394089,1.9,11.24928448
1/12/15 11:00,1421060400,-0.219197707,0.000124485,0.146529348,34.2196306,1027.885082,0.1835154,1.201666667,12.81919582
1/12/15 12:00,1421064000,-0.232583373,0.000130129,0.16478798,34.21805496,1027.884174,0.18440206,1.098347107,12.12603833
1/12/15 13:00,1421067600,-0.247287894,0.000130608,0.163666057,34.21966944,1027.888248,0.169006171,0.3,11.43288085
1/12/15 14:00,1421071200,-0.287546802,0.000134009,0.203669551,34.21579769,1027.886594,0.15479804,2.2,14.27134093
1/12/15 15:00,1421074800,-0.242829134,0.000129832,0.177405445,34.22365411,1027.890258,0.137666705,2.7,13.48310433
1/12/15 16:00,1421078400,-0.21194182,0.000127562,0.158713238,34.22523164,1027.89055,0.133955735,2.9,12.36602803
1/12/15 17:00,1421082000,-0.219028613,0.00012462,0.152326089,34.22684221,1027.890719,0.11076505,3.198333333,11.74314435
1/12/15 18:00,1421085600,-0.187188009,0.000126551,0.144362544,34.23409518,1027.896001,0.11076505,3.4,9.208717373
1/12/15 19:00,1421089200,-0.167043929,0.000128685,0.147330689,34.24014831,1027.899393,0.11546581,2.29338843,6.674290392
1/12/15 20:00,1421092800,-0.269504111,0.000125519,0.165383318,34.23312273,1027.899395,0.118238769,0.099166667,15.91289795
1/12/15 21:00,1421096400,-0.246333574,0.000157638,0.298354283,34.20570256,1027.876155,0.125734413,2.798333333,10.0657517
1/12/15 22:00,1421100000,-0.226449263,0.000157652,0.284386295,34.2092169,1027.877455,0.136087241,1.9,7.329879148
1/12/15 23:00,1421103600,-0.206442593,0.000148169,0.222108461,34.22790972,1027.892238,0.149458186,2.901666667,8.007650396
1/13/15 0:00,1421107200,-0.206360139,0.00014407,0.206053861,34.23223074,1027.894398,0.15112918,2.801666667,8.685421645
1/13/15 1:00,1421110800,-0.244918196,0.000136264,0.185665347,34.23523381,1027.899666,0.152661368,2.601666667,9.363192893
1/13/15 2:00,1421114400,-0.186313069,0.000157243,0.258049632,34.227006,1027.889317,0.134349973,2,10.04096414
1/13/15 3:00,1421118000,-0.091501702,0.000171434,0.257841408,34.24223511,1027.89764,0.131205229,1.6,10.71873539
1/13/15 4:00,1421121600,-0.041022881,0.00019292,0.31746342,34.22740142,1027.882829,0.107563325,0.7,11.39650664
1/13/15 5:00,1421125200,-0.009835924,0.000195085,0.306942219,34.23721019,1027.888903,0.106770214,1.1,12.11338292
1/13/15 6:00,1421128800,-0.032365178,0.000192301,0.290563727,34.2387431,1027.890595,0.074133277,1.603333333,13.14797999
1/13/15 7:00,1421132400,-0.008220203,0.000198673,0.298546787,34.2359432,1027.888303,0.077206895,0.301666667,14.18257706
1/13/15 8:00,1421136000,-0.027113202,0.000169094,0.189670159,34.27935671,1027.924154,0.091224443,0.299159664,20.7972271
1/13/15 9:00,1421139600,0.05638861,0.000188229,0.209956319,34.278237,1027.918787,0.110315854,0,14.62662304
1/13/15 10:00,1421143200,0.101206193,0.000202578,0.231093601,34.26857873,1027.907985,0.127939238,1.101666667,13.16103962
1/13/15 11:00,1421146800,0.097054006,0.000202156,0.237752084,34.26415027,1027.905129,0.161252994,0,12.66366932
1/13/15 12:00,1421150400,0.033528555,0.000204221,0.296295016,34.23607009,1027.885878,0.166488618,1.000840336,14.95882421
1/13/15 13:00,1421154000,0.065924452,0.000206248,0.280078513,34.24402462,1027.890078,0.166697771,1.898333333,14.82130439
1/13/15 14:00,1421157600,-0.069866665,0.000201818,0.352611061,34.19697994,1027.860627,0.166626982,1.601666667,8.867600625
1/13/15 15:00,1421161200,0.092330378,0.000214014,0.297182575,34.24780327,1027.891438,0.165753557,1.401666667,12.03419891
1/13/15 16:00,1421164800,-0.017422428,0.000207357,0.338009288,34.21395996,1027.870978,0.156752446,0.799166667,9.017107565
1/13/15 17:00,1421168400,-0.021769541,0.000206851,0.338337939,34.20192319,1027.860882,0.141329005,0.400840336,9.297820256
1/13/15 18:00,1421172000,-0.016212565,0.000208232,0.336415039,34.20268894,1027.860831,0.123292743,2.900840336,9.578532946
1/13/15 19:00,1421175600,0.008960675,0.000215787,0.340510841,34.21313175,1027.868735,0.116272411,3,9.859245637
1/13/15 20:00,1421179200,-0.200900501,0.000195003,0.419179814,34.17359963,1027.847481,0.100601918,1.601666667,8.554428357
1/13/15 21:00,1421182800,-0.146772132,0.000203184,0.410483,34.18281152,1027.852631,0.100601918,1.9,9.530439745
1/13/15 22:00,1421186400,-0.081647051,0.000209926,0.386436098,34.17795749,1027.844621,0.102113863,2.901666667,14.98546832
1/13/15 23:00,1421190000,-0.050402351,0.000208813,0.371591129,34.18828539,1027.851839,0.107448549,3.298333333,15.81214721
1/14/15 0:00,1421193600,-0.217567995,0.000196363,0.392957626,34.13303686,1027.814934,0.126223237,2.496666667,16.64684781
1/14/15 1:00,1421197200,-0.317045744,0.000183706,0.38263033,34.13428912,1027.820761,0.126665409,2.198333333,10.33174634
1/14/15 2:00,1421200800,-0.256963744,0.000175885,0.344159428,34.15494068,1027.834636,0.127360812,2.501666667,13.94503249
1/14/15 3:00,1421204400,-0.174504318,0.00017585,0.331204396,34.18132097,1027.852104,0.123613196,2.8,11.55744808
1/14/15 4:00,1421208000,-0.182581056,0.000176314,0.31910524,34.17973976,1027.851571,0.119640633,2.798333333,12.77406057
1/14/15 5:00,1421211600,-0.155545618,0.000174185,0.307957494,34.18628086,1027.855047,0.116397904,4.4,10.85787754
1/14/15 6:00,1421215200,-0.182537652,0.000170796,0.300015738,34.17723462,1027.849336,0.114861333,3.5,8.085989789
1/14/15 7:00,1421218800,-0.097299453,0.000181069,0.28546706,34.19238986,1027.856937,0.115638322,3.501666667,8.574066646
1/14/15 8:00,1421222400,-0.116125191,0.000172712,0.287076242,34.19152001,1027.857061,0.115638322,3.998333333,8.031322508
1/14/15 9:00,1421226000,-0.088416572,0.000172284,0.267568126,34.20381905,1027.866505,0.132492829,5.011666667,7.488578371
1/14/15 10:00,1421229600,-0.14138938,0.000166109,0.266070338,34.18384631,1027.853664,0.132492829,2.801666667,6.945834234
1/14/15 11:00,1421233200,-0.135797764,0.00016904,0.268756633,34.179085,1027.84932,0.156802622,4,6.403090096
1/14/15 12:00,1421236800,-0.293166722,0.000151594,0.26775144,34.1513266,1027.834941,0.160261089,3.588333333,9.769179186
1/14/15 13:00,1421240400,-0.298422735,0.000149965,0.254643435,34.16303636,1027.844557,0.17138337,1.198333333,10.91736637
1/14/15 14:00,1421244000,-0.253414308,0.000151127,0.240644915,34.17047946,1027.847345,0.167064502,1.597478992,8.781965862
1/14/15 15:00,1421247600,-0.144549069,0.00015751,0.256192948,34.20708054,1027.871497,0.162024757,3.292436975,7.706572311
1/14/15 16:00,1421251200,-0.046093444,0.000166104,0.247657871,34.23473747,1027.889449,0.145022422,0.698333333,8
1/14/15 17:00,1421254800,0.038672098,0.000165553,0.214169254,34.27029315,1027.914499,0.135373509,0.2,11.77210964
1/14/15 18:00,1421258400,0.134973135,0.000197724,0.237289701,34.27158784,1027.908849,0.112042434,1.496694215,10.13487987
1/14/15 19:00,1421262000,0.19581806,0.000204319,0.229625247,34.28038864,1027.912747,0.112042434,0.2,9
1/14/15 20:00,1421265600,0.211506497,0.00020741,0.220230358,34.28478359,1027.914697,0.084850063,1.1,11.50187999
1/14/15 21:00,1421269200,0.225807711,0.000225188,0.270490928,34.28069142,1027.91023,0.084935944,0.500840336,9.774858703
1/14/15 22:00,1421272800,0.23435405,0.00021489,0.270383536,34.2867711,1027.915399,0.088014401,1.703333333,6.803151213
1/14/15 23:00,1421276400,0.113614644,0.000213546,0.327271405,34.24821022,1027.891465,0.086542499,2.498347107,6.896578615
1/15/15 0:00,1421280000,-0.057323508,0.000200498,0.348481378,34.20799027,1027.868694,0.084096901,1.203305785,7.961582714
1/15/15 1:00,1421283600,-0.054564389,0.000161626,0.213702114,34.24323159,1027.896412,0.088770774,1.097478992,9.026586814
1/15/15 2:00,1421287200,0.037638537,0.000165968,0.194584719,34.27227145,1027.91461,0.092453375,2.798333333,9.430149646
1/15/15 3:00,1421290800,-0.032838228,0.00016048,0.208739392,34.23973321,1027.892583,0.111380707,1.703333333,10.94215614
1/15/15 4:00,1421294400,-0.038163476,0.000157625,0.198667932,34.25439317,1027.904263,0.114918111,1.298333333,11
1/15/15 5:00,1421298000,0.092725047,0.000175213,0.202290417,34.27565849,1027.914286,0.122925986,0.298333333,10.54274488
1/15/15 6:00,1421301600,0.121572916,0.000171484,0.179735853,34.28849044,1027.923066,0.122925986,5.696666667,9.09252327
1/15/15 7:00,1421305200,0.184407582,0.000196581,0.209210599,34.2899659,1027.92086,0.12219336,4.103333333,9.57833129
1/15/15 8:00,1421308800,0.122988348,0.000205823,0.271894348,34.24954847,1027.891583,0.121369026,5.306666667,9.167178543
1/15/15 9:00,1421312400,0.080573266,0.000167805,0.194888234,34.25827514,1027.900213,0.116606957,4.295,9.453911803
1/15/15 10:00,1421316000,-0.020784323,0.000150091,0.174619216,34.26039794,1027.908403,0.120838814,4.798333333,9.740645063
1/15/15 11:00,1421319600,0.034950665,0.000164619,0.203201617,34.26379535,1027.907281,0.125029482,5.601666667,9.609437561
1/15/15 12:00,1421323200,0.078523485,0.000198503,0.283621124,34.2643525,1027.906383,0.139956549,6.003333333,7.950342102
1/15/15 13:00,1421326800,0.167893544,0.000205452,0.312069757,34.26911904,1027.904652,0.145739135,5.298333333,11.83930469
1/15/15 14:00,1421330400,0.21320861,0.000202808,0.293246282,34.28573738,1027.915134,0.163288517,4.398333333,10.63593602
1/15/15 15:00,1421334000,0.225183111,0.000187341,0.280317937,34.29015078,1027.918193,0.167588339,5.2,11.72519452
1/15/15 16:00,1421337600,0.209738658,0.000178176,0.283230205,34.28626787,1027.917547,0.151219697,3.495,11.55873277
1/15/15 17:00,1421341200,0.179985543,0.000185977,0.296781684,34.27391556,1027.909506,0.149519188,4.501666667,11.56560205
1/15/15 18:00,1421344800,0.176162501,0.000188407,0.297593521,34.27605619,1027.909906,0.132187213,3.195,10.4141978
1/15/15 19:00,1421348400,0.187615246,0.000208559,0.298422062,34.27554919,1027.909307,0.132187213,2.603333333,15.34242614
1/15/15 20:00,1421352000,0.189644641,0.000210557,0.298628085,34.27401451,1027.907151,0.096908649,4.201666667,18.19113932
1/15/15 21:00,1421355600,0.165436514,0.000206684,0.303001659,34.26218239,1027.89948,0.08899667,4.598333333,18.03373122
1/15/15 22:00,1421359200,0.057871636,0.00021485,0.33097111,34.21916978,1027.871107,0.061615089,4.801666667,18.89810114
1/15/15 23:00,1421362800,-0.138183754,0.000190138,0.338599468,34.19031394,1027.857247,0.063762029,6.598333333,12.06378026
1/16/15 0:00,1421366400,-0.074098923,0.000197545,0.331143149,34.20980974,1027.869887,0.066169139,7.403333333,8.240067816
1/16/15 1:00,1421370000,-0.049695356,0.000209194,0.324476831,34.2129231,1027.871112,0.078224855,4.996666667,10.67116231
1/16/15 2:00,1421373600,0.117507559,0.000217614,0.30638721,34.24674258,1027.889005,0.082573937,6.7,10.12191099
1/16/15 3:00,1421377200,0.022288253,0.000217189,0.321425428,34.2155447,1027.867082,0.092001854,5.196666667,8.468420692
1/16/15 4:00,1421380800,0.046974919,0.00021731,0.311875221,34.23018762,1027.8805,0.092001854,5.2,6.499914804
1/16/15 5:00,1421384400,0.028571492,0.000215288,0.308836585,34.23065733,1027.881119,0.077079202,4.903333333,6.51286716
1/16/15 6:00,1421388000,0.095667739,0.000221294,0.294953566,34.24524733,1027.890023,0.075896168,4.196666667,6.728849184
1/16/15 7:00,1421391600,0.100901015,0.000223702,0.289974173,34.25154105,1027.894958,0.07290168,3.498333333,6
1/16/15 8:00,1421395200,0.087712446,0.000213464,0.291644933,34.24945624,1027.892854,0.070414235,3.998333333,6
1/16/15 9:00,1421398800,0.040349914,0.000219104,0.304476682,34.22023837,1027.872494,0.068602136,4.101666667,6
1/16/15 10:00,1421402400,0.062572584,0.000207314,0.286084185,34.24013927,1027.887915,0.082520021,3.598333333,6
1/16/15 11:00,1421406000,-0.003317974,0.000191541,0.273990354,34.23028232,1027.882623,0.084106529,2.2,8.51755864
1/16/15 12:00,1421409600,0.11725494,0.000213514,0.282019569,34.24309941,1027.886351,0.114299189,1.5,7.192417323
1/16/15 13:00,1421413200,0.091052798,0.000206989,0.278265043,34.23855691,1027.884021,0.114299189,1.3,10.62798473
1/16/15 14:00,1421416800,0.01798046,0.00018762,0.264900279,34.22980359,1027.881009,0.148242194,6.398333333,14.87226003
1/16/15 15:00,1421420400,0.014681849,0.000181196,0.252190237,34.23579025,1027.885859,0.149425208,7.506666667,13.99120781
1/16/15 16:00,1421424000,0.0569824,0.000175909,0.217996279,34.25021858,1027.896247,0.152470002,4.898347107,10
1/16/15 17:00,1421427600,-0.034292972,0.000157369,0.214716898,34.23794072,1027.890774,0.134701677,5.598333333,12.03003369
1/16/15 18:00,1421431200,-0.001067872,0.00015689,0.191214629,34.25199006,1027.900161,0.122148894,4.998333333,16
1/16/15 19:00,1421434800,-0.01116191,0.000154809,0.186046052,34.25469791,1027.902723,0.063827532,3.901666667,16
1/16/15 20:00,1421438400,-0.024704919,0.000158366,0.205354314,34.24799,1027.898534,0.050122577,3.001666667,12.1201714
1/16/15 21:00,1421442000,0.043417269,0.000163759,0.190136055,34.25850981,1027.902972,0.01581932,4.203333333,13.24542697
1/16/15 22:00,1421445600,-0.069861292,0.000158816,0.224056924,34.2202887,1027.878248,0.01581932,5.198333333,13.57731971
1/16/15 23:00,1421449200,-0.14834813,0.000151356,0.228346326,34.22743667,1027.886761,0.041824625,3.596666667,11
1/17/15 0:00,1421452800,0.015170537,0.00016336,0.193505909,34.25502762,1027.901539,0.045579038,0.798347107,13.09170895
1/17/15 1:00,1421456400,0.189779136,0.000187537,0.167757374,34.29228308,1027.922528,0.052927933,2,14.97615662
1/17/15 2:00,1421460000,0.224811222,0.000189903,0.156574768,34.28783995,1027.916857,0.055442122,0.5,15.33718579
1/17/15 3:00,1421463600,-0.088729961,0.000155416,0.208742293,34.22765631,1027.88671,0.056688907,0.9,14.37408026
1/17/15 4:00,1421467200,-0.031517531,0.000154335,0.187023176,34.24613647,1027.897527,0.078639773,0.403305785,15.47462948
1/17/15 5:00,1421470800,0.025233896,0.000165368,0.200330577,34.24559992,1027.894339,0.085695128,1.3,16.66625016
1/17/15 6:00,1421474400,0.040476373,0.000193296,0.251509051,34.25008889,1027.896915,0.081846325,1.898333333,16.14928155
1/17/15 7:00,1421478000,0.008398453,0.00017965,0.237602379,34.2428159,1027.893318,0.081846325,0.700833333,12.98065826
1/17/15 8:00,1421481600,0.06705034,0.00016294,0.171048614,34.26680923,1027.90943,0.065286914,1.3,11.13706423
1/17/15 9:00,1421485200,0.044470067,0.000154172,0.145883874,34.26450356,1027.909391,0.063639619,1.498333333,8.375493635
1/17/15 10:00,1421488800,-0.082959548,0.00014845,0.174053585,34.24198486,1027.897343,0.050837827,0.300833333,8.699517907
1/17/15 11:00,1421492400,-0.142827586,0.000136574,0.155296377,34.24558451,1027.903957,0.06497854,5.696666667,9.478912308
1/17/15 12:00,1421496000,-0.030744614,0.0001488,0.151269027,34.25785134,1027.90675,0.082259683,5.6,10
1/17/15 13:00,1421499600,0.057697427,0.000168218,0.174311295,34.27235814,1027.915148,0.119498623,4.398333333,10
1/17/15 14:00,1421503200,0.168352713,0.000193485,0.203940851,34.28177121,1027.915762,0.131156882,4,12
1/17/15 15:00,1421506800,0.151225057,0.000192549,0.211470855,34.27765591,1027.912954,0.155553693,4.701666667,12.76135803
1/17/15 16:00,1421510400,0.211917601,0.000207849,0.229087386,34.29452133,1027.923706,0.175159724,5.098333333,12.94989307
1/17/15 17:00,1421514000,0.112009224,0.000192989,0.235737875,34.27310312,1027.912379,0.168440693,4.096666667,13
1/17/15 18:00,1421517600,-0.076852428,0.000142843,0.162154271,34.25954272,1027.91152,0.168440693,2.9,13
1/17/15 19:00,1421521200,-0.115108371,0.000135629,0.157985808,34.26370536,1027.916112,0.124202059,2.898333333,10.74150079
1/17/15 20:00,1421524800,-0.128273945,0.0001245,0.12270963,34.27723086,1027.928213,0.107515314,3.1,7.025744127
1/17/15 21:00,1421528400,-0.076894831,0.000128132,0.12276665,34.27870524,1027.926332,0.064492996,3.1,7.916389301
1/17/15 22:00,1421532000,-0.107347341,0.000122672,0.117463966,34.28150012,1027.930348,0.043008707,3.8,9.494704716
1/17/15 23:00,1421535600,-0.174346158,0.000110225,0.099269299,34.27593401,1027.929703,0.023965707,2.601680672,11.97713498
1/18/15 0:00,1421539200,-0.176308872,0.000135027,0.176424777,34.25140784,1027.909393,0.032530743,2.7,22.82983661
1/18/15 1:00,1421542800,-0.151474063,0.000132384,0.166721578,34.25635725,1027.912581,0.033992373,2.401666667,27.0505867
1/18/15 2:00,1421546400,-0.206072101,0.000125551,0.146103574,34.25956171,1027.918743,0.055531557,2.6,18.06312334
1/18/15 3:00,1421550000,-0.224161503,0.000128718,0.132652271,34.26081825,1027.920191,0.055531557,3.9,11.68146644
1/18/15 4:00,1421553600,-0.210485716,0.000125706,0.146316228,34.25782595,1027.917293,0.0997044,2.601666667,12.67685014
1/18/15 5:00,1421557200,-0.193615974,0.000120266,0.127598244,34.26474572,1027.920861,0.096884853,1.3,12.28493831
1/18/15 6:00,1421560800,-0.136655169,0.000124059,0.11980352,34.27742247,1027.928451,0.091627674,1.8,12.35715187
1/18/15 7:00,1421564400,-0.119391967,0.000133625,0.146605861,34.26834788,1027.91942,0.07792549,1.6,11.03404994
1/18/15 8:00,1421568000,-0.095232988,0.000169328,0.248540017,34.2251828,1027.884208,0.071317994,1.1,8.498853499
1/18/15 9:00,1421571600,-0.035867322,0.000160199,0.208988675,34.2542319,1027.903357,0.050111128,1.001666667,11.01830195
1/18/15 10:00,1421575200,-0.034711773,0.000132956,0.125948973,34.28364468,1027.928361,0.046751581,1.1,10.17716204
1/18/15 11:00,1421578800,-0.056014373,0.000130004,0.126344698,34.28117116,1027.927485,0.055572108,1.4,9.889205224
1/18/15 12:00,1421582400,0.001419302,0.000143182,0.144480881,34.2796936,1027.922498,0.055572108,3.901666667,10.91867855
1/18/15 13:00,1421586000,0.007236841,0.000157174,0.181733838,34.25851613,1027.9054,0.089905234,4.498333333,11.94815188
1/18/15 14:00,1421589600,-0.013324942,0.000164549,0.19460742,34.25459812,1027.903625,0.099590494,4.898333333,17.38067544
1/18/15 15:00,1421593200,-0.006965378,0.000160499,0.190433712,34.2550019,1027.904476,0.145193106,5.1,17.92884434
1/18/15 16:00,1421596800,0.041417083,0.000152651,0.152553618,34.28359592,1027.923983,0.169267509,6.998333333,18.47701323
1/18/15 17:00,1421600400,0.113671683,0.000167448,0.157154307,34.29541516,1027.928371,0.198726867,8.096666667,18.93562344
1/18/15 18:00,1421604000,0.102830138,0.000178029,0.187450586,34.28337478,1027.920357,0.188532477,5.198333333,15.88734732
1/18/15 19:00,1421607600,0.090508667,0.000183076,0.198655743,34.27900306,1027.917451,0.18501687,5.9,11.81055867
1/18/15 20:00,1421611200,0.125807357,0.000191442,0.224423663,34.28304478,1027.918454,0.12222934,6.7,14.49042944
1/18/15 21:00,1421614800,0.171028459,0.00018842,0.292572046,34.26211841,1027.899674,0.12222934,6.501666667,15
1/18/15 22:00,1421618400,0.230103665,0.00019645,0.246073678,34.3080529,1027.933034,0.072707409,7.403333333,18.75444341
1/18/15 23:00,1421622000,0.244742804,0.000197842,0.225065093,34.31511644,1027.938444,0.068931974,7.601666667,15.74766783
1/19/15 0:00,1421625600,0.216593018,0.000192267,0.228391322,34.294623,1027.923809,0.044526641,7.2,24.78666861
1/19/15 1:00,1421629200,0.147158012,0.000200228,0.298934976,34.24789392,1027.890027,0.042135763,6.798333333,31.57888821
1/19/15 2:00,1421632800,0.084670028,0.000201431,0.322814188,34.21955389,1027.870243,0.03775386,7.196666667,17.10417758
1/19/15 3:00,1421636400,0.084806783,0.000205378,0.323293207,34.23089763,1027.879458,0.060751151,7.2,19.65214393
1/19/15 4:00,1421640000,0.180064021,0.000192797,0.290924031,34.26221522,1027.898107,0.071529342,5.498333333,14.81926091
1/19/15 5:00,1421643600,0.200459904,0.000191522,0.273995668,34.26978496,1027.905345,0.11514128,5.598333333,14.03747998
1/19/15 6:00,1421647200,0.147256199,0.000208634,0.249320069,34.25992503,1027.900492,0.11514128,3.496666667,10.31225584
1/19/15 7:00,1421650800,0.29891541,0.000197762,0.164265938,34.32175099,1027.940482,0.117421842,0.499166667,16.22400344
1/19/15 8:00,1421654400,0.139197659,0.00020758,0.257132462,34.25060858,1027.892693,0.114251676,1.201666667,21.88675855
1/19/15 9:00,1421658000,0.223178018,0.000184881,0.157313677,34.31339006,1027.938422,0.087499247,1.498333333,22.18775075
1/19/15 10:00,1421661600,0.163903836,0.000196699,0.213990636,34.27107078,1027.907777,0.080183806,0.799159664,20.46923267
1/19/15 11:00,1421665200,0.021729158,0.000201454,0.265393187,34.22692869,1027.879631,0.069325373,0.303333333,15.99533896
1/19/15 12:00,1421668800,0.005919407,0.000179613,0.241177703,34.23422676,1027.885898,0.067831228,0.1,15.80696012